Time,TemperatureF,DewpointF,PressureIn,WindDirection,WindDirectionDegrees,WindSpeedMPH,WindSpeedGustMPH,Humidity,HourlyPrecipIn,Conditions,Clouds,dailyrainin,SoftwareType,DateUTC
2018-05-27 00:03:00,67.3,67.0,28.02,West,270,0.0,-999.0,98,0.00,,,0.00,,2018-05-27 04:03:00,
2018-05-27 00:08:00,67.3,67.0,28.03,West,270,0.0,-999.0,98,0.00,,,0.00,,2018-05-27 04:08:00,
2018-05-27 00:13:00,67.3,67.0,28.02,West,270,0.0,-999.0,98,0.00,,,0.00,,2018-05-27 04:13:00,
2018-05-27 00:19:00,67.3,67.0,28.02,West,270,0.0,-999.0,98,0.00,,,0.00,,2018-05-27 04:19:00,
2018-05-27 00:24:00,67.3,67.0,28.02,WNW,293,0.0,-999.0,98,0.00,,,0.00,,2018-05-27 04:24:00,
2018-05-27 00:30:00,67.3,67.0,28.02,West,270,0.0,-999.0,98,0.00,,,0.00,,2018-05-27 04:30:00,
2018-05-27 00:35:00,67.3,67.0,28.02,West,270,0.0,-999.0,98,0.00,,,0.00,,2018-05-27 04:35:00,
2018-05-27 00:40:00,67.3,67.0,28.01,West,270,0.0,-999.0,98,0.00,,,0.00,,2018-05-27 04:40:00,
2018-05-27 00:46:00,67.3,67.0,28.01,West,270,0.0,-999.0,98,0.00,,,0.00,,2018-05-27 04:46:00,
2018-05-27 00:51:00,67.3,67.0,28.02,West,270,0.0,-999.0,98,0.00,,,0.00,,2018-05-27 04:51:00,
2018-05-27 00:57:00,67.5,67.0,28.01,WSW,248,0.0,-999.0,98,0.00,,,0.00,,2018-05-27 04:57:00,
2018-05-27 01:02:00,67.6,67.0,28.01,West,270,0.0,-999.0,98,0.00,,,0.00,,2018-05-27 05:02:00,
2018-05-27 01:07:00,67.8,67.0,28.01,West,270,0.0,-999.0,98,0.00,,,0.00,,2018-05-27 05:07:00,
2018-05-27 01:13:00,67.8,67.0,28.02,West,270,0.0,-999.0,98,0.00,,,0.00,,2018-05-27 05:13:00,
2018-05-27 01:18:00,68.0,67.0,28.01,West,270,0.0,-999.0,98,0.00,,,0.00,,2018-05-27 05:18:00,
2018-05-27 01:24:00,68.0,67.0,28.01,West,270,0.0,-999.0,98,0.00,,,0.00,,2018-05-27 05:24:00,
2018-05-27 01:29:00,68.0,67.0,28.01,SW,225,0.0,-999.0,98,0.00,,,0.00,,2018-05-27 05:29:00,
2018-05-27 01:34:00,68.0,67.0,28.01,West,270,0.0,-999.0,98,0.00,,,0.00,,2018-05-27 05:34:00,
2018-05-27 01:40:00,68.0,67.0,28.01,West,270,0.0,-999.0,98,0.00,,,0.00,,2018-05-27 05:40:00,
2018-05-27 01:45:00,68.0,67.0,28.01,West,270,0.0,-999.0,98,0.00,,,0.00,,2018-05-27 05:45:00,
2018-05-27 01:51:00,68.0,67.0,28.01,West,270,0.0,-999.0,98,0.00,,,0.00,,2018-05-27 05:51:00,
2018-05-27 01:56:00,68.0,67.0,28.01,West,270,0.0,-999.0,98,0.00,,,0.00,,2018-05-27 05:56:00,
2018-05-27 02:01:00,68.1,67.0,28.00,NNW,338,0.0,-999.0,98,0.00,,,0.00,,2018-05-27 06:01:00,
2018-05-27 02:07:00,68.1,67.0,28.01,WSW,248,0.0,-999.0,98,0.00,,,0.00,,2018-05-27 06:07:00,
2018-05-27 02:12:00,68.1,67.0,28.01,WSW,248,0.0,-999.0,98,0.00,,,0.00,,2018-05-27 06:12:00,
2018-05-27 02:18:00,68.1,67.0,28.01,West,270,0.0,-999.0,98,0.00,,,0.00,,2018-05-27 06:18:00,
2018-05-27 02:23:00,68.1,67.0,28.01,SW,225,0.0,-999.0,98,0.00,,,0.00,,2018-05-27 06:23:00,
2018-05-27 02:28:00,68.1,67.0,28.01,West,270,0.0,-999.0,98,0.00,,,0.00,,2018-05-27 06:28:00,
2018-05-27 02:34:00,68.1,67.0,28.01,WNW,293,0.0,-999.0,98,0.00,,,0.00,,2018-05-27 06:34:00,
2018-05-27 02:39:00,68.0,67.0,28.01,West,270,0.0,-999.0,98,0.00,,,0.00,,2018-05-27 06:39:00,
2018-05-27 02:45:00,68.0,67.0,28.01,West,270,0.0,-999.0,98,0.00,,,0.00,,2018-05-27 06:45:00,
2018-05-27 02:50:00,67.8,67.0,28.01,SW,225,0.0,-999.0,98,0.00,,,0.00,,2018-05-27 06:50:00,
2018-05-27 02:55:00,67.8,67.0,28.01,WNW,293,0.0,-999.0,98,0.00,,,0.00,,2018-05-27 06:55:00,
2018-05-27 03:01:00,67.8,67.0,28.02,NNE,23,0.0,-999.0,98,0.00,,,0.00,,2018-05-27 07:01:00,
2018-05-27 03:06:00,67.8,67.0,28.01,West,270,1.0,-999.0,98,0.00,,,0.00,,2018-05-27 07:06:00,
2018-05-27 03:09:00,67.8,67.0,28.01,West,270,2.0,-999.0,98,0.00,,,0.00,,2018-05-27 07:09:00,
2018-05-27 03:15:00,67.8,67.0,28.01,West,270,0.0,-999.0,98,0.00,,,0.00,,2018-05-27 07:15:00,
2018-05-27 03:20:00,67.8,67.0,28.01,WSW,248,0.0,-999.0,98,0.00,,,0.00,,2018-05-27 07:20:00,
2018-05-27 03:25:00,67.8,67.0,28.01,WSW,248,0.0,-999.0,98,0.00,,,0.00,,2018-05-27 07:25:00,
2018-05-27 03:31:00,67.8,67.0,28.01,West,270,0.0,-999.0,98,0.00,,,0.00,,2018-05-27 07:31:00,
2018-05-27 03:36:00,67.8,67.0,28.01,West,270,0.0,-999.0,98,0.00,,,0.00,,2018-05-27 07:36:00,
2018-05-27 03:42:00,67.8,67.0,28.01,West,270,0.0,-999.0,98,0.00,,,0.00,,2018-05-27 07:42:00,
2018-05-27 03:47:00,67.8,67.0,28.00,West,270,0.0,-999.0,98,0.00,,,0.00,,2018-05-27 07:47:00,
2018-05-27 03:52:00,67.8,67.0,28.01,WSW,248,0.0,-999.0,98,0.00,,,0.00,,2018-05-27 07:52:00,
2018-05-27 03:58:00,67.8,67.0,28.00,SE,135,0.0,-999.0,98,0.00,,,0.00,,2018-05-27 07:58:00,
2018-05-27 04:03:00,67.8,67.0,28.00,West,270,0.0,-999.0,98,0.00,,,0.00,,2018-05-27 08:03:00,
2018-05-27 04:09:00,67.8,67.0,28.01,West,270,0.0,-999.0,98,0.00,,,0.00,,2018-05-27 08:09:00,
2018-05-27 04:14:00,67.6,67.0,28.01,West,270,0.0,-999.0,98,0.00,,,0.00,,2018-05-27 08:14:00,
2018-05-27 04:19:00,67.6,67.0,28.01,NW,315,0.0,-999.0,98,0.00,,,0.00,,2018-05-27 08:19:00,
2018-05-27 04:25:00,67.6,67.0,28.01,NW,315,0.0,-999.0,98,0.00,,,0.00,,2018-05-27 08:25:00,
2018-05-27 04:30:00,67.6,67.0,28.01,WSW,248,0.0,-999.0,98,0.00,,,0.00,,2018-05-27 08:30:00,
2018-05-27 04:36:00,67.6,67.0,28.01,West,270,0.0,-999.0,98,0.00,,,0.00,,2018-05-27 08:36:00,
2018-05-27 04:41:00,67.5,67.0,28.01,West,270,0.0,-999.0,98,0.00,,,0.00,,2018-05-27 08:41:00,
2018-05-27 04:46:00,67.5,67.0,28.01,West,270,0.0,-999.0,98,0.00,,,0.00,,2018-05-27 08:46:00,
2018-05-27 04:52:00,67.3,67.0,28.01,West,270,0.0,-999.0,98,0.00,,,0.00,,2018-05-27 08:52:00,
2018-05-27 04:57:00,67.3,67.0,28.01,West,270,0.0,-999.0,98,0.00,,,0.00,,2018-05-27 08:57:00,
2018-05-27 05:03:00,67.3,67.0,28.01,NNE,23,0.0,-999.0,98,0.00,,,0.00,,2018-05-27 09:03:00,
2018-05-27 05:08:00,67.3,67.0,28.01,West,270,0.0,-999.0,98,0.00,,,0.00,,2018-05-27 09:08:00,
2018-05-27 05:13:00,67.3,67.0,28.01,West,270,0.0,-999.0,98,0.00,,,0.00,,2018-05-27 09:13:00,
2018-05-27 05:19:00,67.3,67.0,28.01,West,270,0.0,-999.0,98,0.00,,,0.00,,2018-05-27 09:19:00,
2018-05-27 05:24:00,67.3,67.0,28.02,NNW,338,0.0,-999.0,98,0.00,,,0.00,,2018-05-27 09:24:00,
2018-05-27 05:30:00,67.3,67.0,28.01,West,270,0.0,-999.0,98,0.00,,,0.00,,2018-05-27 09:30:00,
2018-05-27 05:35:00,67.3,67.0,28.02,West,270,0.0,-999.0,98,0.00,,,0.00,,2018-05-27 09:35:00,
2018-05-27 05:40:00,67.3,67.0,28.02,West,270,0.0,-999.0,98,0.00,,,0.00,,2018-05-27 09:40:00,
2018-05-27 05:46:00,67.3,67.0,28.02,West,270,0.0,-999.0,98,0.00,,,0.00,,2018-05-27 09:46:00,
2018-05-27 05:51:00,67.1,66.0,28.02,West,270,0.0,-999.0,98,0.00,,,0.00,,2018-05-27 09:51:00,
2018-05-27 05:57:00,67.1,66.0,28.02,West,270,0.0,-999.0,98,0.00,,,0.00,,2018-05-27 09:57:00,
2018-05-27 06:02:00,67.1,66.0,28.03,West,270,0.0,-999.0,98,0.00,,,0.00,,2018-05-27 10:02:00,
2018-05-27 06:07:00,66.9,66.0,28.03,WSW,248,0.0,-999.0,98,0.00,,,0.00,,2018-05-27 10:07:00,
2018-05-27 06:13:00,66.9,66.0,28.03,West,270,0.0,-999.0,98,0.00,,,0.00,,2018-05-27 10:13:00,
2018-05-27 06:18:00,66.9,66.0,28.03,West,270,0.0,-999.0,98,0.00,,,0.00,,2018-05-27 10:18:00,
2018-05-27 06:24:00,66.6,66.0,28.03,West,270,0.0,-999.0,98,0.00,,,0.00,,2018-05-27 10:24:00,
2018-05-27 06:29:00,66.6,66.0,28.03,West,270,0.0,-999.0,98,0.00,,,0.00,,2018-05-27 10:29:00,
2018-05-27 06:34:00,66.6,66.0,28.03,West,270,0.0,-999.0,98,0.00,,,0.00,,2018-05-27 10:34:00,
2018-05-27 06:40:00,66.6,66.0,28.04,West,270,0.0,-999.0,98,0.00,,,0.00,,2018-05-27 10:40:00,
2018-05-27 06:45:00,66.6,66.0,28.04,West,270,0.0,-999.0,98,0.00,,,0.00,,2018-05-27 10:45:00,
2018-05-27 06:51:00,66.6,66.0,28.04,West,270,0.0,-999.0,98,0.00,,,0.00,,2018-05-27 10:51:00,
2018-05-27 06:56:00,66.6,66.0,28.04,West,270,0.0,-999.0,98,0.00,,,0.00,,2018-05-27 10:56:00,
2018-05-27 07:01:00,66.6,66.0,28.04,West,270,0.0,-999.0,98,0.00,,,0.00,,2018-05-27 11:01:00,
2018-05-27 07:07:00,66.9,66.0,28.04,West,270,0.0,-999.0,98,0.00,,,0.00,,2018-05-27 11:07:00,
2018-05-27 07:12:00,67.1,66.0,28.04,West,270,0.0,-999.0,98,0.00,,,0.00,,2018-05-27 11:12:00,
2018-05-27 07:18:00,67.3,67.0,28.04,WSW,248,0.0,-999.0,98,0.00,,,0.00,,2018-05-27 11:18:00,
2018-05-27 07:23:00,67.5,67.0,28.04,ENE,68,0.0,-999.0,98,0.00,,,0.00,,2018-05-27 11:23:00,
2018-05-27 07:28:00,67.5,67.0,28.05,North,0,0.0,-999.0,98,0.00,,,0.00,,2018-05-27 11:28:00,
2018-05-27 07:34:00,67.3,67.0,28.05,West,270,0.0,-999.0,98,0.00,,,0.00,,2018-05-27 11:34:00,
2018-05-27 07:39:00,67.5,67.0,28.04,ENE,68,0.0,-999.0,98,0.00,,,0.00,,2018-05-27 11:39:00,
2018-05-27 07:45:00,67.6,67.0,28.04,West,270,0.0,-999.0,98,0.00,,,0.00,,2018-05-27 11:45:00,
2018-05-27 07:50:00,67.6,67.0,28.04,West,270,0.0,-999.0,98,0.00,,,0.00,,2018-05-27 11:50:00,
2018-05-27 07:55:00,67.6,67.0,28.05,West,270,0.0,-999.0,98,0.00,,,0.00,,2018-05-27 11:55:00,
2018-05-27 08:01:00,67.6,67.0,28.05,West,270,0.0,-999.0,98,0.00,,,0.00,,2018-05-27 12:01:00,
2018-05-27 08:06:00,67.6,67.0,28.05,West,270,0.0,-999.0,98,0.00,,,0.00,,2018-05-27 12:06:00,
2018-05-27 08:12:00,67.6,67.0,28.05,West,270,0.0,-999.0,98,0.00,,,0.00,,2018-05-27 12:12:00,
2018-05-27 08:17:00,67.8,67.0,28.05,NNW,338,0.0,-999.0,98,0.00,,,0.00,,2018-05-27 12:17:00,
2018-05-27 08:22:00,67.8,67.0,28.05,West,270,0.0,-999.0,98,0.00,,,0.00,,2018-05-27 12:22:00,
2018-05-27 08:28:00,68.0,67.0,28.05,West,270,0.0,-999.0,98,0.00,,,0.00,,2018-05-27 12:28:00,
2018-05-27 08:33:00,67.8,67.0,28.06,West,270,0.0,-999.0,98,0.00,,,0.00,,2018-05-27 12:33:00,
2018-05-27 08:39:00,67.8,67.0,28.06,West,270,0.0,-999.0,98,0.00,,,0.00,,2018-05-27 12:39:00,
2018-05-27 08:44:00,67.8,67.0,28.06,NNE,23,0.0,-999.0,98,0.00,,,0.00,,2018-05-27 12:44:00,
2018-05-27 08:49:00,67.8,67.0,28.06,West,270,0.0,-999.0,98,0.00,,,0.00,,2018-05-27 12:49:00,
2018-05-27 08:55:00,68.1,67.0,28.06,West,270,0.0,-999.0,98,0.00,,,0.00,,2018-05-27 12:55:00,
2018-05-27 09:00:00,68.4,68.0,28.06,West,270,0.0,-999.0,98,0.00,,,0.00,,2018-05-27 13:00:00,
2018-05-27 09:06:00,68.4,68.0,28.06,West,270,0.0,-999.0,98,0.00,,,0.00,,2018-05-27 13:06:00,
2018-05-27 09:11:00,68.4,68.0,28.05,WSW,248,0.0,-999.0,98,0.00,,,0.00,,2018-05-27 13:11:00,
2018-05-27 09:16:00,68.4,68.0,28.06,South,180,0.0,-999.0,98,0.00,,,0.00,,2018-05-27 13:16:00,
2018-05-27 09:22:00,68.6,68.0,28.06,West,270,0.0,-999.0,98,0.00,,,0.00,,2018-05-27 13:22:00,
2018-05-27 09:27:00,69.3,69.0,28.06,West,270,0.0,-999.0,98,0.00,,,0.00,,2018-05-27 13:27:00,
2018-05-27 09:32:00,69.6,69.0,28.06,West,270,0.0,-999.0,98,0.00,,,0.00,,2018-05-27 13:32:00,
2018-05-27 09:37:00,70.0,69.0,28.06,West,270,0.0,-999.0,98,0.00,,,0.00,,2018-05-27 13:37:00,
2018-05-27 09:43:00,70.0,69.0,28.06,West,270,0.0,-999.0,98,0.00,,,0.00,,2018-05-27 13:43:00,
2018-05-27 09:48:00,69.8,69.0,28.06,West,270,0.0,-999.0,98,0.00,,,0.00,,2018-05-27 13:48:00,
2018-05-27 09:53:00,70.1,69.0,28.06,West,270,0.0,-999.0,98,0.00,,,0.00,,2018-05-27 13:53:00,
2018-05-27 09:58:00,70.1,69.0,28.06,ENE,68,0.0,-999.0,98,0.00,,,0.00,,2018-05-27 13:58:00,
2018-05-27 10:04:00,70.3,70.0,28.06,ENE,68,0.0,-999.0,98,0.00,,,0.00,,2018-05-27 14:04:00,
2018-05-27 10:09:00,70.3,70.0,28.06,NE,45,0.0,-999.0,98,0.00,,,0.00,,2018-05-27 14:09:00,
2018-05-27 10:15:00,70.9,70.0,28.06,WSW,248,0.0,-999.0,98,0.00,,,0.00,,2018-05-27 14:15:00,
2018-05-27 10:20:00,71.5,71.0,28.06,West,270,0.0,-999.0,98,0.00,,,0.00,,2018-05-27 14:20:00,
2018-05-27 10:25:00,71.9,71.0,28.06,SW,225,0.0,-999.0,98,0.00,,,0.00,,2018-05-27 14:25:00,
2018-05-27 10:31:00,71.9,71.0,28.06,West,270,0.0,-999.0,98,0.00,,,0.00,,2018-05-27 14:31:00,
2018-05-27 10:36:00,72.6,72.0,28.06,WSW,248,0.0,-999.0,98,0.00,,,0.00,,2018-05-27 14:36:00,
2018-05-27 10:42:00,73.1,72.0,28.06,WSW,248,0.0,-999.0,96,0.00,,,0.00,,2018-05-27 14:42:00,
2018-05-27 10:47:00,74.0,72.0,28.06,WSW,248,0.0,-999.0,96,0.00,,,0.00,,2018-05-27 14:47:00,
2018-05-27 10:52:00,74.8,73.0,28.06,SW,225,0.0,-999.0,95,0.00,,,0.00,,2018-05-27 14:52:00,
2018-05-27 10:58:00,74.6,73.0,28.07,West,270,0.0,-999.0,96,0.00,,,0.00,,2018-05-27 14:58:00,
2018-05-27 11:03:00,73.8,72.0,28.06,WNW,293,0.0,-999.0,96,0.00,,,0.00,,2018-05-27 15:03:00,
2018-05-27 11:09:00,75.0,73.0,28.07,NNE,23,0.0,-999.0,95,0.00,,,0.00,,2018-05-27 15:09:00,
2018-05-27 11:14:00,74.8,73.0,28.07,NE,45,0.0,-999.0,95,0.00,,,0.00,,2018-05-27 15:14:00,
2018-05-27 11:19:00,74.8,73.0,28.06,NW,315,0.0,-999.0,96,0.00,,,0.00,,2018-05-27 15:19:00,
2018-05-27 11:25:00,73.0,72.0,28.06,West,270,0.0,-999.0,96,0.00,,,0.00,,2018-05-27 15:25:00,
2018-05-27 11:30:00,72.8,72.0,28.06,NE,45,0.0,-999.0,98,0.00,,,0.00,,2018-05-27 15:30:00,
2018-05-27 11:36:00,74.0,73.0,28.06,SSE,158,0.0,-999.0,98,0.00,,,0.00,,2018-05-27 15:36:00,
2018-05-27 11:41:00,73.9,72.0,28.06,NNE,23,0.0,-999.0,96,0.00,,,0.00,,2018-05-27 15:41:00,
2018-05-27 11:46:00,74.0,72.0,28.06,East,90,0.0,-999.0,96,0.00,,,0.00,,2018-05-27 15:46:00,
2018-05-27 11:52:00,74.8,73.0,28.06,North,0,0.0,-999.0,96,0.00,,,0.00,,2018-05-27 15:52:00,
2018-05-27 11:57:00,74.6,73.0,28.06,West,270,0.0,-999.0,96,0.00,,,0.00,,2018-05-27 15:57:00,
2018-05-27 12:03:00,73.8,73.0,28.06,West,270,0.0,-999.0,98,0.00,,,0.00,,2018-05-27 16:03:00,
2018-05-27 12:08:00,74.0,73.0,28.07,West,270,0.0,-999.0,98,0.00,,,0.00,,2018-05-27 16:08:00,
2018-05-27 12:13:00,75.1,73.0,28.06,NNW,338,0.0,-999.0,95,0.00,,,0.00,,2018-05-27 16:13:00,
2018-05-27 12:18:00,75.0,73.0,28.06,NE,45,0.0,-999.0,95,0.00,,,0.00,,2018-05-27 16:18:00,
2018-05-27 12:24:00,75.3,73.0,28.06,North,0,0.0,-999.0,93,0.00,,,0.00,,2018-05-27 16:24:00,
2018-05-27 12:30:00,75.5,73.0,28.06,West,270,0.0,-999.0,93,0.00,,,0.00,,2018-05-27 16:30:00,